IGO19K OMDB-VABB

Flight info

Callsign IGO19K
Flight time 2h 43m
Altitude 35000
Route IVURO M677 LALDO B505 NADSO A777 VAXIM P307 PARAR N571 SUGID KETOR2A
Aircraft A320/M-SDE3FGHIRWY/LB1

Departure

Time 2026-05-04 13:59
Airport Dubai International Airport (OMDB)

Arrival

Time 2026-05-04 16:43
Airport Chhatrapati Shivaji Maharaj International Airport (VABB)
Time Latitude Longitude Altitude Speed Heading
2026-05-04 13:26 25.25769 55.34689 21 ft 0 kts 211°
2026-05-04 13:36 25.25777 55.34694 21 ft 3 kts 211°
2026-05-04 13:36 25.25791 55.34704 23 ft 3 kts 211°
2026-05-04 13:37 25.25806 55.34714 25 ft 3 kts 211°
2026-05-04 13:37 25.25820 55.34724 22 ft 3 kts 211°
2026-05-04 13:37 25.25834 55.34736 24 ft 3 kts 231°
2026-05-04 13:37 25.25846 55.34749 25 ft 2 kts 238°
2026-05-04 13:38 25.25852 55.34765 22 ft 2 kts 290°
2026-05-04 13:38 25.25851 55.34767 22 ft 0 kts 297°
2026-05-04 13:41 25.25852 55.34766 22 ft 0 kts 297°
2026-05-04 13:42 25.25864 55.34745 22 ft 2 kts 301°
2026-05-04 13:42 25.25874 55.34725 24 ft 4 kts 301°
2026-05-04 13:42 25.25892 55.34693 22 ft 6 kts 302°
2026-05-04 13:42 25.25917 55.34651 21 ft 7 kts 303°
2026-05-04 13:43 25.25946 55.34600 21 ft 7 kts 302°
2026-05-04 13:43 25.25981 55.34561 21 ft 8 kts 337°
2026-05-04 13:43 25.26037 55.34574 21 ft 9 kts 30°
2026-05-04 13:43 25.26084 55.34621 21 ft 6 kts 46°
2026-05-04 13:44 25.26117 55.34659 21 ft 8 kts 47°
2026-05-04 13:44 25.26154 55.34704 21 ft 8 kts 48°
2026-05-04 13:44 25.26196 55.34752 21 ft 9 kts 43°
2026-05-04 13:44 25.26251 55.34796 22 ft 10 kts 32°
2026-05-04 13:45 25.26308 55.34832 22 ft 6 kts 30°
2026-05-04 13:45 25.26341 55.34860 22 ft 6 kts 45°
2026-05-04 13:45 25.26354 55.34902 23 ft 6 kts 92°
2026-05-04 13:45 25.26334 55.34945 23 ft 7 kts 121°
2026-05-04 13:46 25.26313 55.34983 25 ft 0 kts 121°
2026-05-04 13:46 25.26312 55.34984 24 ft 1 kts 121°
2026-05-04 13:46 25.26305 55.34997 23 ft 3 kts 121°
2026-05-04 13:47 25.26291 55.35023 23 ft 5 kts 121°
2026-05-04 13:47 25.26266 55.35066 23 ft 8 kts 124°
2026-05-04 13:47 25.26231 55.35125 23 ft 10 kts 123°
2026-05-04 13:47 25.26190 55.35198 23 ft 8 kts 121°
2026-05-04 13:48 25.26173 55.35253 23 ft 8 kts 82°
2026-05-04 13:48 25.26210 55.35305 23 ft 9 kts 37°
2026-05-04 13:48 25.26265 55.35341 24 ft 10 kts 31°
2026-05-04 13:48 25.26329 55.35384 26 ft 12 kts 32°
2026-05-04 13:49 25.26385 55.35423 23 ft 7 kts 32°
2026-05-04 13:49 25.26429 55.35465 23 ft 9 kts 63°
2026-05-04 13:49 25.26410 55.35535 23 ft 11 kts 121°
2026-05-04 13:49 25.26368 55.35611 23 ft 13 kts 122°
2026-05-04 13:50 25.26316 55.35698 21 ft 15 kts 123°
2026-05-04 13:50 25.26263 55.35789 22 ft 15 kts 122°
2026-05-04 13:50 25.26206 55.35894 22 ft 17 kts 121°
2026-05-04 13:50 25.26159 55.35978 22 ft 12 kts 121°
2026-05-04 13:51 25.26117 55.36053 22 ft 13 kts 122°
2026-05-04 13:51 25.26066 55.36145 23 ft 15 kts 121°
2026-05-04 13:51 25.26009 55.36245 24 ft 16 kts 120°
2026-05-04 13:51 25.25947 55.36356 23 ft 18 kts 122°
2026-05-04 13:52 25.25803 55.36613 23 ft 22 kts 123°
2026-05-04 13:52 25.25717 55.36760 22 ft 22 kts 121°
2026-05-04 13:52 25.25651 55.36882 22 ft 16 kts 122°
2026-05-04 13:53 25.25589 55.36992 23 ft 18 kts 122°
2026-05-04 13:53 25.25521 55.37113 24 ft 19 kts 120°
2026-05-04 13:53 25.25446 55.37246 23 ft 21 kts 122°
2026-05-04 13:54 25.25280 55.37541 23 ft 23 kts 122°
2026-05-04 13:54 25.25203 55.37680 25 ft 15 kts 122°
2026-05-04 13:54 25.25082 55.37897 22 ft 19 kts 121°
2026-05-04 13:55 25.25010 55.38022 22 ft 20 kts 122°
2026-05-04 13:55 25.24932 55.38119 22 ft 0 kts 167°
2026-05-04 13:55 25.24931 55.38119 22 ft 1 kts 169°
2026-05-04 13:56 25.24920 55.38119 22 ft 2 kts 180°
2026-05-04 13:56 25.24905 55.38114 23 ft 3 kts 199°
2026-05-04 13:56 25.24874 55.38098 24 ft 2 kts 210°
2026-05-04 13:57 25.24857 55.38086 24 ft 3 kts 217°
2026-05-04 13:57 25.24836 55.38063 28 ft 5 kts 227°
2026-05-04 13:58 25.24837 55.37971 28 ft 3 kts 301°
2026-05-04 13:58 25.25267 55.37190 27 ft 114 kts 301°
2026-05-04 13:58 25.25769 55.36290 28 ft 155 kts 301°
2026-05-04 13:59 25.26372 55.35168 64 ft 187 kts 300°
2026-05-04 13:59 25.27067 55.33903 617 ft 190 kts 300°
2026-05-04 13:59 25.28429 55.31464 2006 ft 182 kts 302°
2026-05-04 14:00 25.29130 55.30313 2620 ft 182 kts 316°
2026-05-04 14:00 25.31554 55.29493 3593 ft 198 kts
2026-05-04 14:00 25.32940 55.29859 3838 ft 218 kts 30°
2026-05-04 14:01 25.33974 55.31154 4015 ft 242 kts 66°
2026-05-04 14:01 25.34212 55.33066 4269 ft 265 kts 87°
2026-05-04 14:01 25.34164 55.37299 5347 ft 281 kts 89°
2026-05-04 14:02 25.34106 55.39457 6022 ft 284 kts 90°
2026-05-04 14:02 25.34050 55.41645 6642 ft 287 kts 89°
2026-05-04 14:02 25.34000 55.43882 7237 ft 291 kts 89°
2026-05-04 14:02 25.33960 55.46118 7818 ft 296 kts 88°
2026-05-04 14:03 25.33923 55.48404 8415 ft 299 kts 88°
2026-05-04 14:03 25.33887 55.50717 9014 ft 303 kts 88°
2026-05-04 14:03 25.33852 55.53062 9613 ft 307 kts 88°
2026-05-04 14:03 25.33818 55.55469 9889 ft 323 kts 88°
2026-05-04 14:04 25.33741 55.60719 10219 ft 355 kts 89°
2026-05-04 14:04 25.33697 55.63465 10663 ft 360 kts 89°
2026-05-04 14:04 25.33654 55.66249 11173 ft 363 kts 89°
2026-05-04 14:05 25.33565 55.71872 12167 ft 369 kts 89°
2026-05-04 14:05 25.33519 55.74712 12678 ft 371 kts 89°
2026-05-04 14:05 25.33471 55.77576 13192 ft 373 kts 89°
2026-05-04 14:06 25.33420 55.80454 13696 ft 375 kts 89°
2026-05-04 14:06 25.33367 55.83345 14151 ft 378 kts 88°
2026-05-04 14:06 25.33316 55.86257 14571 ft 381 kts 89°
2026-05-04 14:06 25.33264 55.89195 15023 ft 384 kts 89°
2026-05-04 14:07 25.33210 55.92148 15462 ft 387 kts 89°
2026-05-04 14:07 25.33154 55.95145 15894 ft 390 kts 89°
2026-05-04 14:07 25.33100 55.98151 16313 ft 393 kts 89°
2026-05-04 14:07 25.33046 56.01175 16749 ft 396 kts 89°
2026-05-04 14:08 25.32989 56.04235 17183 ft 399 kts 89°
2026-05-04 14:08 25.32933 56.07315 17615 ft 402 kts 89°
2026-05-04 14:08 25.32877 56.10422 18048 ft 406 kts 89°
2026-05-04 14:08 25.32822 56.13556 18436 ft 409 kts 89°
2026-05-04 14:09 25.32549 56.19871 19231 ft 415 kts 93°
2026-05-04 14:09 25.32280 56.23054 19625 ft 418 kts 94°
2026-05-04 14:10 25.31967 56.25989 19977 ft 420 kts 96°
2026-05-04 14:10 25.31625 56.29206 20344 ft 423 kts 95°
2026-05-04 14:10 25.31319 56.32456 20731 ft 426 kts 94°
2026-05-04 14:10 25.31039 56.35769 21085 ft 429 kts 94°
2026-05-04 14:11 25.30782 56.39013 21462 ft 431 kts 94°
2026-05-04 14:11 25.30463 56.45673 22190 ft 436 kts 90°
2026-05-04 14:11 25.30395 56.49080 22555 ft 439 kts 90°
2026-05-04 14:12 25.30344 56.52416 22898 ft 442 kts 90°
2026-05-04 14:12 25.30285 56.55854 23249 ft 444 kts 91°
2026-05-04 14:12 25.29203 56.62516 23815 ft 449 kts 110°
2026-05-04 14:13 25.28001 56.65723 24079 ft 452 kts 114°
2026-05-04 14:13 25.26776 56.68909 24356 ft 455 kts 113°
2026-05-04 14:13 25.25548 56.72145 24626 ft 457 kts 113°
2026-05-04 14:13 25.24733 56.74304 24806 ft 459 kts 113°
2026-05-04 14:14 25.23502 56.77578 25080 ft 462 kts 113°
2026-05-04 14:14 25.21006 56.84200 25616 ft 467 kts 113°
2026-05-04 14:14 25.19761 56.87476 25867 ft 470 kts 113°
2026-05-04 14:15 25.17196 56.94200 26366 ft 475 kts 113°
2026-05-04 14:15 25.14622 57.00953 26867 ft 480 kts 113°
2026-05-04 14:16 25.12012 57.07777 27384 ft 485 kts 113°
2026-05-04 14:16 25.10700 57.11197 27636 ft 487 kts 113°
2026-05-04 14:17 25.08046 57.18134 28126 ft 493 kts 113°
2026-05-04 14:17 25.06717 57.21617 28399 ft 495 kts 113°
2026-05-04 14:17 25.04040 57.28606 29123 ft 495 kts 113°
2026-05-04 14:18 25.02693 57.32104 29461 ft 495 kts 113°
2026-05-04 14:18 24.99996 57.39095 30122 ft 496 kts 113°
2026-05-04 14:19 24.97295 57.46099 30774 ft 494 kts 113°
2026-05-04 14:19 24.95954 57.49574 31114 ft 494 kts 113°
2026-05-04 14:19 24.94614 57.53045 31458 ft 493 kts 114°
2026-05-04 14:19 24.93274 57.56515 31811 ft 492 kts 114°
2026-05-04 14:20 24.91934 57.59997 32165 ft 491 kts 114°
2026-05-04 14:20 24.90604 57.63454 32515 ft 491 kts 114°
2026-05-04 14:20 24.89265 57.66913 32864 ft 490 kts 114°
2026-05-04 14:21 24.86585 57.73809 33515 ft 490 kts 114°
2026-05-04 14:21 24.85242 57.77255 33812 ft 489 kts 114°
2026-05-04 14:21 24.83903 57.80696 34096 ft 488 kts 114°
2026-05-04 14:21 24.82560 57.84109 34358 ft 487 kts 115°
2026-05-04 14:22 24.81152 57.87494 34622 ft 486 kts 116°
2026-05-04 14:22 24.79691 57.90841 34700 ft 488 kts 117°
2026-05-04 14:22 24.76643 57.97615 34707 ft 497 kts 117°
2026-05-04 14:23 24.72082 58.07908 34712 ft 499 kts 116°
2026-05-04 14:24 24.69084 58.14790 34708 ft 499 kts 116°
2026-05-04 14:24 24.66079 58.21680 34712 ft 499 kts 116°
2026-05-04 14:25 24.63061 58.28550 34710 ft 500 kts 116°
2026-05-04 14:25 24.58508 58.38875 34713 ft 500 kts 116°
2026-05-04 14:26 24.55474 58.45763 34717 ft 501 kts 116°
2026-05-04 14:26 24.52437 58.52633 34720 ft 501 kts 116°
2026-05-04 14:27 24.49385 58.59524 34720 ft 501 kts 116°
2026-05-04 14:27 24.46336 58.66401 34715 ft 501 kts 116°
2026-05-04 14:28 24.43295 58.73277 34723 ft 500 kts 116°
2026-05-04 14:28 24.40240 58.80141 34723 ft 500 kts 116°
2026-05-04 14:29 24.34142 58.93835 34723 ft 499 kts 116°
2026-05-04 14:30 24.31094 59.00675 34720 ft 499 kts 116°
2026-05-04 14:31 24.26518 59.10909 34725 ft 498 kts 116°
2026-05-04 14:32 24.20414 59.24548 34728 ft 498 kts 116°
2026-05-04 14:32 24.17360 59.31346 34724 ft 498 kts 116°
2026-05-04 14:33 24.14293 59.38146 34728 ft 498 kts 116°
2026-05-04 14:33 24.11232 59.44943 34712 ft 498 kts 116°
2026-05-04 14:34 24.08178 59.51734 34725 ft 497 kts 116°
2026-05-04 14:34 24.05121 59.58514 34726 ft 496 kts 117°
2026-05-04 14:35 24.02062 59.65269 34733 ft 496 kts 117°
2026-05-04 14:35 23.98998 59.72024 34728 ft 495 kts 117°
2026-05-04 14:36 23.95937 59.78775 34723 ft 495 kts 117°
2026-05-04 14:36 23.92869 59.85512 34710 ft 495 kts 117°
2026-05-04 14:37 23.89808 59.92241 34722 ft 494 kts 117°
2026-05-04 14:37 23.86747 59.98963 34721 ft 494 kts 117°
2026-05-04 14:38 23.83686 60.05674 34721 ft 494 kts 117°
2026-05-04 14:38 23.80617 60.12400 34719 ft 494 kts 117°
2026-05-04 14:39 23.77554 60.19110 34725 ft 494 kts 117°
2026-05-04 14:39 23.74473 60.25825 34715 ft 495 kts 117°
2026-05-04 14:40 23.69849 60.35892 34725 ft 494 kts 117°
2026-05-04 14:40 23.66775 60.42584 34736 ft 493 kts 117°
2026-05-04 14:41 23.63717 60.49236 34724 ft 493 kts 117°
2026-05-04 14:42 23.57542 60.62632 34721 ft 493 kts 117°
2026-05-04 14:42 23.54480 60.69253 34713 ft 493 kts 117°
2026-05-04 14:43 23.51389 60.75924 34736 ft 492 kts 117°
2026-05-04 14:43 23.48301 60.82578 34724 ft 492 kts 117°
2026-05-04 14:44 23.45210 60.89228 34725 ft 492 kts 117°
2026-05-04 14:44 23.42118 60.95879 34721 ft 492 kts 117°
2026-05-04 14:45 23.39028 61.02534 34725 ft 492 kts 117°
2026-05-04 14:45 23.35935 61.09195 34727 ft 493 kts 117°
2026-05-04 14:46 23.32827 61.15835 34740 ft 492 kts 117°
2026-05-04 14:46 23.29746 61.22485 34737 ft 492 kts 116°
2026-05-04 14:47 23.26783 61.29195 34743 ft 492 kts 115°
2026-05-04 14:47 23.23840 61.35916 34736 ft 492 kts 116°
2026-05-04 14:48 23.20856 61.42625 34728 ft 493 kts 116°
2026-05-04 14:48 23.17885 61.49274 34736 ft 493 kts 116°
2026-05-04 14:49 23.14885 61.55981 34739 ft 493 kts 116°
2026-05-04 14:49 23.11889 61.62689 34745 ft 493 kts 116°
2026-05-04 14:50 23.08894 61.69384 34743 ft 493 kts 116°
2026-05-04 14:50 23.05895 61.76067 34747 ft 493 kts 116°
2026-05-04 14:51 23.02888 61.82752 34747 ft 493 kts 116°
2026-05-04 14:51 22.99883 61.89437 34748 ft 493 kts 116°
2026-05-04 14:52 22.96869 61.96119 34744 ft 493 kts 116°
2026-05-04 14:52 22.93858 62.02798 34745 ft 492 kts 116°
2026-05-04 14:53 22.90851 62.09458 34746 ft 492 kts 116°
2026-05-04 14:53 22.87840 62.16114 34755 ft 491 kts 116°
2026-05-04 14:54 22.85337 62.21645 34756 ft 491 kts 116°
2026-05-04 14:54 22.82328 62.28290 34756 ft 491 kts 116°
2026-05-04 14:55 22.79305 62.34930 34758 ft 491 kts 116°
2026-05-04 14:55 22.76277 62.41568 34755 ft 491 kts 116°
2026-05-04 14:56 22.73265 62.48188 34757 ft 491 kts 116°
2026-05-04 14:56 22.70243 62.54830 34756 ft 491 kts 116°
2026-05-04 14:57 22.67213 62.61458 34755 ft 491 kts 116°
2026-05-04 14:57 22.64188 62.68072 34755 ft 491 kts 116°
2026-05-04 14:58 22.61160 62.74694 34755 ft 491 kts 116°
2026-05-04 14:58 22.58120 62.81322 34759 ft 491 kts 116°
2026-05-04 14:59 22.55087 62.87931 34750 ft 491 kts 116°
2026-05-04 15:00 22.50531 62.97859 34755 ft 491 kts 116°
2026-05-04 15:00 22.47492 63.04451 34761 ft 491 kts 117°
2026-05-04 15:01 22.42921 63.14355 34767 ft 491 kts 116°
2026-05-04 15:01 22.39946 63.20997 34765 ft 491 kts 115°
2026-05-04 15:02 22.37004 63.27654 34762 ft 491 kts 115°
2026-05-04 15:02 22.34047 63.34308 34756 ft 491 kts 116°
2026-05-04 15:03 22.31061 63.40947 34762 ft 491 kts 116°
2026-05-04 15:03 22.28078 63.47571 34767 ft 491 kts 116°
2026-05-04 15:04 22.25093 63.54202 34768 ft 491 kts 116°
2026-05-04 15:04 22.22103 63.60840 34765 ft 491 kts 116°
2026-05-04 15:05 22.19113 63.67472 34771 ft 492 kts 116°
2026-05-04 15:05 22.16123 63.74104 34774 ft 492 kts 116°
2026-05-04 15:06 22.13119 63.80738 34763 ft 492 kts 116°
2026-05-04 15:07 22.08614 63.90680 34776 ft 492 kts 116°
2026-05-04 15:07 22.05612 63.97297 34781 ft 492 kts 116°
2026-05-04 15:08 22.02608 64.03919 34779 ft 492 kts 116°
2026-05-04 15:08 21.99594 64.10544 34782 ft 492 kts 116°
2026-05-04 15:09 21.96582 64.17164 34781 ft 492 kts 116°
2026-05-04 15:09 21.93555 64.23792 34782 ft 493 kts 116°
2026-05-04 15:10 21.89010 64.33722 34781 ft 492 kts 116°
2026-05-04 15:11 21.84481 64.43637 34788 ft 492 kts 116°
2026-05-04 15:11 21.81456 64.50239 34787 ft 492 kts 116°
2026-05-04 15:12 21.78423 64.56832 34788 ft 492 kts 116°
2026-05-04 15:12 21.75396 64.63418 34788 ft 492 kts 116°
2026-05-04 15:13 21.72361 64.70019 34782 ft 491 kts 116°
2026-05-04 15:13 21.69335 64.76595 34776 ft 491 kts 116°
2026-05-04 15:14 21.66304 64.83185 34782 ft 491 kts 116°
2026-05-04 15:14 21.63272 64.89746 34785 ft 490 kts 116°
2026-05-04 15:15 21.60227 64.96299 34789 ft 490 kts 116°
2026-05-04 15:15 21.57182 65.02860 34787 ft 490 kts 116°
2026-05-04 15:16 21.52621 65.12704 34788 ft 490 kts 116°
2026-05-04 15:17 21.48057 65.22529 34782 ft 491 kts 117°
2026-05-04 15:17 21.43486 65.32346 34791 ft 490 kts 116°
2026-05-04 15:18 21.40432 65.38896 34789 ft 490 kts 117°
2026-05-04 15:19 21.35869 65.48687 34790 ft 490 kts 117°
2026-05-04 15:19 21.31287 65.58470 34793 ft 490 kts 117°
2026-05-04 15:20 21.28224 65.64995 34791 ft 490 kts 117°
2026-05-04 15:20 21.25161 65.71514 34782 ft 490 kts 117°
2026-05-04 15:21 21.22106 65.78031 34792 ft 489 kts 117°
2026-05-04 15:22 21.17524 65.87781 34794 ft 488 kts 117°
2026-05-04 15:22 21.12926 65.97518 34796 ft 488 kts 117°
2026-05-04 15:23 21.09883 66.04016 34797 ft 488 kts 116°
2026-05-04 15:23 21.06945 66.10514 34795 ft 488 kts 115°
2026-05-04 15:24 21.01047 66.23599 34797 ft 488 kts 116°
2026-05-04 15:25 20.98073 66.30114 34802 ft 487 kts 116°
2026-05-04 15:26 20.93594 66.39880 34799 ft 487 kts 116°
2026-05-04 15:26 20.89137 66.49617 34799 ft 487 kts 116°
2026-05-04 15:27 20.84675 66.59380 34803 ft 487 kts 116°
2026-05-04 15:28 20.80198 66.69121 34801 ft 487 kts 116°
2026-05-04 15:29 20.75724 66.78869 34812 ft 486 kts 116°
2026-05-04 15:30 20.65281 67.01525 34809 ft 486 kts 116°
2026-05-04 15:31 20.60793 67.11234 34809 ft 486 kts 116°
2026-05-04 15:32 20.53285 67.27395 34811 ft 487 kts 116°
2026-05-04 15:34 20.45775 67.43578 34814 ft 487 kts 116°
2026-05-04 15:34 20.41252 67.53275 34817 ft 487 kts 116°
2026-05-04 15:35 20.37202 67.61938 34818 ft 488 kts 116°
2026-05-04 15:36 20.32663 67.71639 34818 ft 488 kts 116°
2026-05-04 15:36 20.29634 67.78109 34820 ft 487 kts 116°
2026-05-04 15:37 20.26615 67.84559 34827 ft 486 kts 116°
2026-05-04 15:37 20.23596 67.90996 34828 ft 486 kts 116°
2026-05-04 15:38 20.20572 67.97430 34826 ft 485 kts 116°
2026-05-04 15:38 20.17566 68.03810 34824 ft 485 kts 116°
2026-05-04 15:39 20.14540 68.10226 34824 ft 485 kts 116°
2026-05-04 15:40 20.10014 68.19827 34830 ft 485 kts 116°
2026-05-04 15:40 20.06984 68.26236 34819 ft 485 kts 116°
2026-05-04 15:41 20.03959 68.32635 34829 ft 484 kts 116°
2026-05-04 15:41 20.00925 68.39044 34831 ft 484 kts 116°
2026-05-04 15:42 19.97895 68.45422 34831 ft 483 kts 116°
2026-05-04 15:42 19.94864 68.51790 34830 ft 483 kts 116°
2026-05-04 15:43 19.91836 68.58166 34832 ft 483 kts 116°
2026-05-04 15:43 19.88811 68.64534 34830 ft 483 kts 116°
2026-05-04 15:44 19.85783 68.70910 34829 ft 483 kts 116°
2026-05-04 15:44 19.82741 68.77277 34829 ft 483 kts 116°
2026-05-04 15:45 19.79719 68.83592 34831 ft 482 kts 116°
2026-05-04 15:45 19.76667 68.89977 34837 ft 482 kts 116°
2026-05-04 15:46 19.73642 68.96321 34833 ft 481 kts 116°
2026-05-04 15:46 19.70615 69.02660 34839 ft 481 kts 116°
2026-05-04 15:47 19.67575 69.08982 34840 ft 481 kts 116°
2026-05-04 15:47 19.64530 69.15303 34839 ft 481 kts 116°
2026-05-04 15:48 19.61495 69.21619 34835 ft 481 kts 116°
2026-05-04 15:48 19.56935 69.31113 34822 ft 481 kts 116°
2026-05-04 15:49 19.53896 69.37432 34832 ft 481 kts 116°
2026-05-04 15:49 19.50879 69.43754 34841 ft 481 kts 116°
2026-05-04 15:50 19.47872 69.50055 34843 ft 480 kts 116°
2026-05-04 15:50 19.44851 69.56368 34847 ft 481 kts 116°
2026-05-04 15:51 19.41817 69.62690 34845 ft 481 kts 116°
2026-05-04 15:51 19.38785 69.68996 34842 ft 481 kts 116°
2026-05-04 15:52 19.35747 69.75315 34839 ft 481 kts 116°
2026-05-04 15:52 19.32714 69.81627 34839 ft 481 kts 116°
2026-05-04 15:53 19.29689 69.87925 34840 ft 480 kts 116°
2026-05-04 15:53 19.26659 69.94226 34842 ft 479 kts 116°
2026-05-04 15:54 19.23634 70.00502 34841 ft 479 kts 116°
2026-05-04 15:54 19.20603 70.06783 34841 ft 479 kts 116°
2026-05-04 15:55 19.17567 70.13043 34844 ft 479 kts 116°
2026-05-04 15:55 19.14523 70.19318 34845 ft 479 kts 116°
2026-05-04 15:56 19.11874 70.25761 34838 ft 478 kts 110°
2026-05-04 15:56 19.09438 70.32309 34841 ft 478 kts 111°
2026-05-04 15:57 19.06978 70.38839 34842 ft 479 kts 111°
2026-05-04 15:57 19.04512 70.45379 34843 ft 478 kts 111°
2026-05-04 15:58 19.02057 70.51906 34843 ft 478 kts 111°
2026-05-04 15:58 18.99607 70.58425 34849 ft 477 kts 111°
2026-05-04 15:59 18.97162 70.64935 34851 ft 477 kts 111°
2026-05-04 15:59 18.94709 70.71449 34847 ft 476 kts 111°
2026-05-04 16:00 18.92255 70.77946 34845 ft 476 kts 111°
2026-05-04 16:00 18.89797 70.84450 34849 ft 477 kts 111°
2026-05-04 16:01 18.87336 70.90957 34851 ft 477 kts 111°
2026-05-04 16:01 18.84865 70.97453 34851 ft 477 kts 111°
2026-05-04 16:02 18.82401 71.03959 34850 ft 477 kts 111°
2026-05-04 16:03 18.78699 71.13695 34847 ft 476 kts 111°
2026-05-04 16:03 18.77471 71.16910 34667 ft 476 kts 111°
2026-05-04 16:03 18.76240 71.20144 34412 ft 474 kts 111°
2026-05-04 16:03 18.75011 71.23375 33971 ft 472 kts 111°
2026-05-04 16:04 18.73798 71.26564 33506 ft 468 kts 111°
2026-05-04 16:04 18.71401 71.32853 32577 ft 462 kts 110°
2026-05-04 16:04 18.70192 71.36029 32103 ft 459 kts 110°
2026-05-04 16:05 18.69011 71.39131 31655 ft 456 kts 110°
2026-05-04 16:05 18.67846 71.42184 31184 ft 453 kts 110°
2026-05-04 16:05 18.65486 71.48350 30290 ft 447 kts 110°
2026-05-04 16:06 18.64338 71.51332 30066 ft 446 kts 110°
2026-05-04 16:06 18.61217 71.59444 29388 ft 445 kts 110°
2026-05-04 16:07 18.59693 71.63434 29044 ft 442 kts 110°
2026-05-04 16:07 18.56258 71.72405 28280 ft 437 kts 110°
2026-05-04 16:08 18.55119 71.75367 28034 ft 435 kts 110°
2026-05-04 16:08 18.51736 71.84158 27287 ft 429 kts 110°
2026-05-04 16:09 18.49504 71.89957 26811 ft 426 kts 110°
2026-05-04 16:09 18.47288 71.95720 26341 ft 423 kts 110°
2026-05-04 16:10 18.45086 72.01429 25882 ft 417 kts 111°
2026-05-04 16:11 18.43753 72.09829 25228 ft 382 kts 64°
2026-05-04 16:11 18.45212 72.12112 25001 ft 373 kts 38°
2026-05-04 16:12 18.51677 72.16473 24336 ft 374 kts 41°
2026-05-04 16:12 18.56704 72.22781 23679 ft 374 kts 48°
2026-05-04 16:13 18.60060 72.26942 22987 ft 370 kts 45°
2026-05-04 16:13 18.63530 72.30889 22219 ft 365 kts 44°
2026-05-04 16:14 18.67000 72.34745 21464 ft 360 kts 44°
2026-05-04 16:14 18.70406 72.38567 20743 ft 355 kts 44°
2026-05-04 16:15 18.75416 72.44244 19672 ft 349 kts 45°
2026-05-04 16:16 18.78701 72.47964 18982 ft 344 kts 45°
2026-05-04 16:16 18.83017 72.52851 18084 ft 339 kts 45°
2026-05-04 16:17 18.86209 72.56477 17311 ft 336 kts 45°
2026-05-04 16:18 18.90300 72.62368 16178 ft 336 kts 71°
2026-05-04 16:18 18.90739 72.64783 15828 ft 336 kts 86°
2026-05-04 16:19 18.91028 72.72125 14765 ft 333 kts 87°
2026-05-04 16:19 18.91235 72.77013 14074 ft 332 kts 87°
2026-05-04 16:20 18.91529 72.84291 12988 ft 330 kts 87°
2026-05-04 16:20 18.91723 72.89122 12241 ft 328 kts 88°
2026-05-04 16:21 18.91997 72.96281 11181 ft 324 kts 87°
2026-05-04 16:22 18.92183 73.00991 10484 ft 320 kts 87°
2026-05-04 16:22 18.92450 73.07913 9850 ft 300 kts 88°
2026-05-04 16:23 18.92686 73.14146 9868 ft 275 kts 88°
2026-05-04 16:24 18.92452 73.22127 9868 ft 274 kts 119°
2026-05-04 16:25 18.89459 73.24356 9887 ft 273 kts 173°
2026-05-04 16:26 18.82176 73.23214 9891 ft 272 kts 226°
2026-05-04 16:26 18.81373 73.17703 9877 ft 271 kts 300°
2026-05-04 16:27 18.84282 73.15419 9381 ft 268 kts 350°
2026-05-04 16:28 18.89858 73.15278 8487 ft 267 kts 11°
2026-05-04 16:28 18.92929 73.19573 7613 ft 269 kts 87°
2026-05-04 16:29 18.93248 73.27554 6387 ft 272 kts 86°
2026-05-04 16:30 18.93483 73.33463 5641 ft 262 kts 86°
2026-05-04 16:31 18.93634 73.37193 5335 ft 248 kts 86°
2026-05-04 16:31 18.96419 73.40807 4454 ft 226 kts 357°
2026-05-04 16:32 18.99609 73.37915 3570 ft 216 kts 287°
2026-05-04 16:33 19.00538 73.34883 2945 ft 216 kts 287°
2026-05-04 16:33 19.01460 73.31856 2905 ft 218 kts 287°
2026-05-04 16:34 19.02392 73.28806 2910 ft 220 kts 285°
2026-05-04 16:34 19.02864 73.27272 2901 ft 220 kts 284°
2026-05-04 16:35 19.04292 73.22649 2878 ft 216 kts 285°
2026-05-04 16:35 19.05660 73.18192 2882 ft 211 kts 285°
2026-05-04 16:36 19.06108 73.16722 2883 ft 210 kts 284°
2026-05-04 16:36 19.06975 73.13907 2901 ft 191 kts 285°
2026-05-04 16:37 19.07770 73.11323 2893 ft 179 kts 285°
2026-05-04 16:37 19.08154 73.10067 2879 ft 178 kts 285°
2026-05-04 16:37 19.08912 73.07587 2857 ft 177 kts 284°
2026-05-04 16:38 19.09099 73.05015 2833 ft 177 kts 269°
2026-05-04 16:39 19.09066 73.01263 2425 ft 151 kts 266°
2026-05-04 16:39 19.09038 72.99146 2073 ft 140 kts 266°
2026-05-04 16:40 19.09010 72.97084 1717 ft 140 kts 265°
2026-05-04 16:40 19.08983 72.95025 1357 ft 141 kts 266°
2026-05-04 16:41 19.08955 72.92962 997 ft 140 kts 265°
2026-05-04 16:41 19.08914 72.89925 512 ft 136 kts 265°
2026-05-04 16:42 19.08872 72.86955 51 ft 114 kts 269°
2026-05-04 16:43 19.08880 72.85976 47 ft 35 kts 291°
2026-05-04 16:43 19.09040 72.85828 49 ft 11 kts 16°
2026-05-04 16:43 19.09050 72.85832 49 ft 0 kts 22°
2026-05-04 16:44 19.09058 72.85836 49 ft 3 kts 23°
2026-05-04 16:45 19.09117 72.85872 46 ft 7 kts 30°
2026-05-04 16:46 19.09162 72.85903 49 ft 1 kts 59°
2026-05-04 16:46 19.09152 72.85923 49 ft 3 kts 120°
2026-05-04 16:47 19.09138 72.85949 46 ft 0 kts 118°